Location: *
(58.7167°N, 26.1833°E)
Time: 16:04:45
(UTC+00:00)

Cosmos 1536 - Pass Details

Date: 25 August 2019
Orbit: 541 x 559 km, 82.5° (Epoch: 22 October)

Event Time Altitude Azimuth Distance (km) Brightness Sun altitude
Rises 19:26:42 0° 203° (SSW) 2,740 6.1 -12.6°
Reaches altitude 10° 19:28:54 10° 207° (SSW) 1,848 5.3 -12.7°
Maximum altitude 19:32:55 58° 287° (WNW) 658 3.5 -13.1°
Drops below altitude 10° 19:36:58 10° 8° (N) 1,858 6.1 -13.4°
Sets 19:39:11 0° 12° (NNE) 2,756 7.0 -13.6°
